Starlink 4716

operational
NORAD ID: 53706 Int'l Des: 2022-107 Owner: SPXS Country: US Constellation: starlink
LEOCIRCULAR

Starlink 4716について

説明を読み込み中...

リアルタイム位置

3D地球を読み込み中...

次回通過

高度履歴

Altitude vs Time

uPlot chart will show altitude changes over time

軌道要素

1 53706U 22107G 25353.14609701 -.00001204 00000-0 -57607-4 0 9997
2 53706 53.2167 245.7557 0001605 113.5677 246.5484 15.08813606182691
Epoch: Dec 19, 2025 • Age: 17 hours

現在のステータス

高度 540.8 km
速度 7.60 km/s
衛星直下点 31.74°N, 6.35°E
打ち上げ日 Sep 5, 2022
運用期間 3.2 years
タイプ internet

技術仕様

分類 Payload
質量 305.00 kg
乾燥質量 290.00 kg
総質量 305.00 kg
長さ 0.20 m
直径 2.80 m
スパン 9.00 m
形状 Box + pan
製造者 SPXS
バスタイプ Starlink
フェーズステータス In Orbit
所有者/国 SPXS/US

大規模コンステレーション

Loading constellations...